Kuchera_Ratio
4.8 5.4 4.7 3.7 3.4 3.5 3.3 2.1 0.1 0.0 0.0 0.0 0.0 0.0 0.0 0.0 0.0 0.0 0.0 0.0 0.0 0.0
5.2 4.9 4.7 3.5 2.9 3.2 2.1 1.0 0.8 0.5 0.6 0.0 0.0 0.0 0.0 0.0 0.0 0.0 0.0 0.0 0.0 0.0
6.6 5.2 4.0 3.7 4.5 3.9 2.6 1.9 2.0 2.1 1.8 1.3 0.0 0.0 0.0 0.0 0.0 0.0 0.0 0.0 0.0 0.0
7.6 6.8 5.3 6.1 5.4 4.9 4.5 4.8 4.5 3.2 3.7 3.2 3.0 0.3 0.0 0.0 0.0 0.0 0.0 0.0 0.0 0.0
8.7 8.1 8.8 9.0 8.2 6.6 7.7 6.6 6.7 4.6 5.0 4.4 3.0 0.3 0.3 0.3 0.0 0.0 0.0 0.0 0.0 0.0
11.6 11.8 11.8 10.7 9.9 8.3 8.0 7.8 7.2 6.4 6.2 6.1 5.2 4.3 1.8 1.6 2.7 1.3 0.7 0.0 0.0 0.0
13.2 12.8 12.3 10.8 9.9 9.1 8.1 7.9 7.7 7.6 6.6 5.8 5.3 5.4 5.2 4.7 4.6 3.3 3.2 2.5 0.0 0.0
13.7 13.1 12.6 11.6 11.1 9.5 9.1 8.4 7.8 7.8 7.5 6.4 5.9 5.1 5.4 5.4 5.3 4.7 4.5 2.9 0.9 0.0
13.9 13.8 13.1 12.4 12.4 10.8 10.1 9.5 8.2 7.7 7.5 7.6 6.7 2.8 1.7 2.9 4.3 4.1 3.9 4.4 1.4 0.0
13.9 13.8 13.5 13.1 12.4 12.0 11.3 10.0 9.7 9.0 7.7 7.2 5.9 0.8 0.7 1.6 5.3 5.3 3.9 2.7 1.5 0.1
13.5 13.6 13.5 13.6 12.8 12.6 11.5 11.5 11.0 9.9 9.3 8.7 6.6 3.6 4.0 5.4 6.6 6.8 6.3 6.0 4.6 2.1
12.9 13.4 13.8 13.8 12.9 12.2 11.8 11.8 11.4 10.4 10.2 9.6 8.7 5.8 6.2 8.0 8.2 9.8 9.5 9.3 8.6 7.6
12.7 13.1 13.6 13.5 13.1 12.1 11.6 11.9 11.3 12.1 10.5 9.5 9.5 6.5 7.0 8.8 10.0 9.9 10.6 10.3 9.2 8.3
11.6 11.7 12.2 12.0 12.4 12.5 11.1 11.4 12.3 12.5 12.7 10.7 9.5 8.2 7.2 8.2 10.7 11.4 12.2 12.1 12.0 10.6